Location: Downe
(51.3167°N, 0.0500°E)
Time: 11:32:42
(UTC+00:00)

Cosmos 1437 - Pass Details

Date: 17 November 2019
Orbit: 380 x 384 km, 81.2° (Epoch: 12 December)

Event Time Altitude Azimuth Distance (km) Brightness Sun altitude
Rises 05:58:13 0° 192° (SSW) 2,250 6.5 -12.6°
Reaches altitude 10° 06:00:11 10° 192° (SSW) 1,403 5.4 -12.3°
Maximum altitude 06:03:14 87° 284° (WNW) 391 2.5 -11.8°
Drops below altitude 10° 06:06:19 10° 12° (NNE) 1,420 5.4 -11.4°
Sets 06:08:20 0° 13° (NNE) 2,281 6.4 -11.1°
